Location: Heisler
(52.6701°N, 112.2239°W)
Time: 14:05:52
(UTC+00:00)

Envisat - Pass Details

Date: 06 December 2021
Orbit: 764 x 766 km, 98.2° (Epoch: 26 January)

Event Time Altitude Azimuth Distance (km) Brightness Sun altitude
Rises 14:15:14 0° 7° (N) 3,248 6.1 -9.9°
Reaches altitude 10° 14:18:00 10° 352° (N) 2,317 5.2 -9.5°
Maximum altitude 14:21:48 22° 304° (NW) 1,646 4.1 -9.0°
Drops below altitude 10° 14:25:36 10° 255° (WSW) 2,306 5.0 -8.5°
Sets 14:28:21 0° 241° (WSW) 3,227 5.9 -8.1°
